Punta Gorda, FL

1:18 PM EST on December 06, 2019 (GMT -0500)
Charlotte County

Weather History for KPGD - November, 2019

Change the Weather History Date:

Monday, November 18, 2019

  Actual Average Record
Temperature  
Mean Temperature 62 °F -  
Max Temperature 72 °F 77 °F 88 °F (2015)
Min Temperature 51 °F 56 °F 44 °F (2002)
Degree Days  
Heating Degree Days 4    
Growing Degree Days 12 (Base 50)    
Moisture  
Dew Point 55 °F    
Average Humidity 89    
Maximum Humidity 100    
Minimum Humidity 59    
Precipitation  
Precipitation 0.00 in - - ()
Sea Level Pressure  
Sea Level Pressure 29.89 in    
Wind  
Wind Speed 6 mph (NNE)    
Max Wind Speed 10 mph    
Max Gust Speed -    
Visibility 9 miles    
Events      
Averages and records for this station are not official NWS values.
T = Trace of Precipitation, MM = Missing Value Source: NWS Daily Summary

Daily Weather History Graph

Daily Weather History Graph

Search for Another Location

Airport or City:

Astronomy

Nov. 18, 2019 Rise Set
Actual Time 6:49 AM EST 5:36 PM EST
Civil Twilight 6:25 AM EST 6:00 PM EST
Nautical Twilight 5:56 AM EST 6:28 PM EST
Astronomical Twilight 5:29 AM EST 6:56 PM EST
Moon 11:20 PM EST (11/18) 12:17 PM EST (11/18)
Length of Visible Light 11h 35m
Length of Day
10h 46m
Waning Gibbous, 63% of the Moon is Illuminated
Nov 18
Waning Gibbous
Nov 19
Last Quarter
Nov 26
New
Dec 4
First Quarter
Dec 12
Full

Hourly Weather History & Observations

Time (EST) Temp. Dew Point Humidity Pressure Visibility Wind Dir Wind Speed Gust Speed Precip Events Conditions
1:53 AM 53.1 °F 52.0 °F 96% 29.91 in 7.0 mi North 9.2 mph - N/A   Overcast
2:53 AM 53.1 °F 52.0 °F 96% 29.90 in 7.0 mi North 5.8 mph - N/A   Overcast
3:53 AM 53.1 °F 53.1 °F 100% 29.90 in 8.0 mi NNW 9.2 mph - N/A   Overcast
4:33 AM 52.0 °F 52.0 °F 100% 29.89 in 10.0 mi NE 5.8 mph - N/A   Scattered Clouds
4:53 AM 52.0 °F 51.1 °F 97% 29.89 in 10.0 mi NE 5.8 mph - N/A   Clear
5:48 AM 51.8 °F 51.8 °F 100% 29.89 in 7.0 mi NE 4.6 mph - N/A   Scattered Clouds
5:53 AM 51.1 °F 51.1 °F 100% 29.89 in 7.0 mi NE 4.6 mph - N/A   Scattered Clouds
6:00 AM 52.0 °F 52.0 °F 100% 29.89 in 7.0 mi ENE 4.6 mph - N/A   Mostly Cloudy
6:10 AM 52.0 °F 52.0 °F 100% 29.90 in 7.0 mi NE 6.9 mph - N/A   Overcast
6:53 AM 53.1 °F 53.1 °F 100% 29.91 in 5.0 mi NE 6.9 mph - N/A   Overcast
7:03 AM 53.1 °F 53.1 °F 100% 29.91 in 5.0 mi NE 4.6 mph - N/A   Overcast
7:53 AM 53.1 °F 53.1 °F 100% 29.92 in 5.0 mi ENE 4.6 mph - N/A   Overcast
8:53 AM 55.9 °F 53.1 °F 90% 29.92 in 10.0 mi Variable 3.5 mph - N/A   Scattered Clouds
9:53 AM 62.1 °F 53.1 °F 72% 29.93 in 10.0 mi ENE 3.5 mph - N/A   Clear
10:53 AM 66.9 °F 54.0 °F 63% 29.92 in 10.0 mi North 10.4 mph - N/A   Mostly Cloudy
11:53 AM 71.1 °F 55.9 °F 59% 29.89 in 10.0 mi Variable 4.6 mph - N/A   Partly Cloudy
12:53 PM 71.1 °F 55.9 °F 59% 29.86 in 10.0 mi Variable 5.8 mph - N/A   Clear
2:53 PM 72.0 °F 59.0 °F 64% 29.83 in 10.0 mi WSW 10.4 mph - N/A   Clear
3:53 PM 71.1 °F 57.9 °F 63% 29.84 in 10.0 mi WSW 8.1 mph - N/A   Clear
4:53 PM 70.0 °F 59.0 °F 68% 29.84 in 10.0 mi West 8.1 mph - N/A   Clear
5:53 PM 66.9 °F 60.1 °F 79% 29.85 in 10.0 mi West 4.6 mph - N/A   Clear
6:53 PM 64.9 °F 61.0 °F 87% 29.86 in 10.0 mi SW 3.5 mph - N/A   Clear
7:53 PM 61.0 °F 60.1 °F 97% 29.88 in 10.0 mi Calm Calm - N/A   Clear
8:53 PM 59.0 °F 59.0 °F 100% 29.88 in 10.0 mi Calm Calm - N/A   Partly Cloudy
9:53 PM 59.0 °F 59.0 °F 100% 29.88 in 10.0 mi Calm Calm - N/A   Scattered Clouds
10:53 PM 61.0 °F 61.0 °F 100% 29.89 in 10.0 mi Calm Calm - N/A   Overcast
11:53 PM 60.1 °F 60.1 °F 100% 29.89 in 10.0 mi East 3.5 mph - N/A   Mostly Cloudy